Location: Spring Mountain Observatory
(40.2501°N, 75.4333°W)
Time: 18:33:00
(UTC-05:00)

Amateur Radio Satellites - All Passes

Search period start: 22 January 2018 18:03
Search period end: 23 January 2018 18:03
Location: Spring Mountain Observatory, 40.2501°N, 75.4333°W

Satellite Date Start Highest point End Downlink Frequencies (MHz)
Time Altitude Azimuth
CUBEBUG 2 22 Jan 18:12:11 18:16:28 58° 74° (ENE) 18:20:57 437.445
STRAND 1 22 Jan 18:12:46 18:14:43 12° 89° (E) 18:16:40 437.568
UWE-3 22 Jan 18:13:49 18:17:48 34° 70° (ENE) 18:21:55 435.000/436.395/437.385
RS-15 22 Jan 18:27:05 18:37:23 40° 253° (WSW) 18:47:17 29.354- 29.394
XW-2A 22 Jan 18:28:03 18:30:49 23° 71° (ENE) 18:33:35 145.665 - 145.685
KAITUO 1B 22 Jan 18:31:08 18:33:40 17° 266° (W) 18:36:12 145.475/437.950
ZACube-1 22 Jan 18:33:16 18:37:06 29° 69° (ENE) 18:41:00 437.345
BEESAT 3 22 Jan 18:33:59 18:37:37 38° 244° (WSW) 18:41:11 437.485
AAUSAT CUBESAT 2 22 Jan 18:35:29 18:39:20 40° 73° (ENE) 18:43:12 437.432
XW-2F 22 Jan 18:37:40 18:38:59 12° 269° (W) 18:40:20 145.980 - 146.000
AO-73 22 Jan 18:38:48 18:42:38 29° 69° (ENE) 18:46:32 145.935
NUDT-PHONESAT 22 Jan 18:38:52 18:41:02 15° 267° (W) 18:43:13 437.300
AO-85 22 Jan 18:45:32 18:48:42 17° 42° (NE) 18:51:59 145.980
KKS-1 22 Jan 18:50:31 18:53:16 16° 296° (WNW) 18:56:02 437.445
HO-68 22 Jan 18:57:49 19:04:30 42° 261° (W) 19:11:15 435.675
nSIGHT-1 22 Jan 18:59:43 19:02:26 27° 135° (SE) 19:05:10 .
SEEDS 22 Jan 18:59:52 19:03:51 41° 262° (W) 19:07:51 437.485
STARS 22 Jan 18:59:53 19:03:43 30° 291° (WNW) 19:07:33 437.465
Oscar 11 22 Jan 19:09:41 19:13:41 37° 72° (ENE) 19:17:43 .
CUTE 1.7 + AOD 2 22 Jan 19:17:51 19:20:36 17° 268° (W) 19:23:21 437.475
ISS 22 Jan 19:20:50 19:23:43 30° 135° (SE) 19:26:37 437.550
BEESAT 2 22 Jan 19:26:42 19:30:28 41° 244° (WSW) 19:34:10 435.950
PCSat 22 Jan 19:32:05 19:36:53 33° 251° (WSW) 19:41:39 145.827
FO-29 22 Jan 19:39:48 19:44:33 35° 98° (E) 19:49:24 435.910
STRAND 1 22 Jan 19:49:17 19:54:26 76° 286° (WNW) 19:59:34 437.568
UWE-3 22 Jan 19:50:51 19:54:18 22° 267° (W) 19:57:50 435.000/436.395/437.385
CUBEBUG 2 22 Jan 19:51:37 19:53:30 12° 271° (W) 19:55:25 437.445
XW-2A 22 Jan 20:01:04 20:03:26 18° 266° (W) 20:05:50 145.665 - 145.685
ZACube-1 22 Jan 20:09:34 20:13:18 26° 265° (W) 20:17:08 437.345
AAUSAT CUBESAT 2 22 Jan 20:12:27 20:14:56 15° 268° (W) 20:17:25 437.432
AO-73 22 Jan 20:15:03 20:18:48 26° 266° (W) 20:22:36 145.935
AO-85 22 Jan 20:24:41 20:29:42 84° 239° (WSW) 20:34:59 145.980
DELFI C3 22 Jan 20:28:01 20:31:47 49° 74° (ENE) 20:35:34 145.870
nSIGHT-1 22 Jan 20:35:38 20:38:32 32° 331° (NNW) 20:41:26 .
Max Valier Satellite 22 Jan 20:41:43 20:45:17 45° 74° (ENE) 20:48:53 145.860
TIGRISAT 22 Jan 20:42:47 20:45:30 15° 91° (E) 20:48:12 435.000
Oscar 11 22 Jan 20:46:54 20:49:56 18° 267° (W) 20:52:59 .
EO-88 22 Jan 20:55:37 20:59:05 42° 74° (ENE) 21:02:34 145.990 - 145.960
ISS 22 Jan 20:57:12 21:00:10 32° 332° (NNW) 21:03:09 437.550
UNISAT 6 22 Jan 20:57:46 21:01:35 24° 94° (E) 21:05:21 437.425
YUBILEINY 22 Jan 21:12:53 21:18:29 19° 78° (ENE) 21:24:04 435.215
FO-29 22 Jan 21:25:20 21:29:32 26° 294° (WNW) 21:33:47 435.910
ESTCUBE 1 22 Jan 21:43:21 21:46:39 20° 66° (ENE) 21:49:57 437.505/2401.250
DELFI C3 22 Jan 22:05:31 22:06:46 11° 269° (W) 22:08:02 145.870
PRISM 22 Jan 22:06:44 22:10:05 24° 96° (E) 22:13:25 437.425
LO-87 22 Jan 22:08:12 22:11:32 39° 73° (ENE) 22:14:54 145.935 - 145.965
AO-85 22 Jan 22:08:30 22:09:28 10° 254° (WSW) 22:10:27 145.980
NO-84 22 Jan 22:11:20 22:13:12 16° 30° (NNE) 22:15:05 435.350 FM
nSIGHT-1 22 Jan 22:14:07 22:15:27 12° 351° (N) 22:16:46 .
TIGRISAT 22 Jan 22:17:53 22:22:28 54° 287° (WNW) 22:27:01 435.000
Max Valier Satellite 22 Jan 22:18:11 22:19:19 11° 269° (W) 22:20:27 145.860
EO-88 22 Jan 22:31:46 22:32:55 11° 269° (W) 22:34:03 145.990 - 145.960
UNISAT 6 22 Jan 22:34:03 22:38:17 34° 290° (WNW) 22:42:29 437.425
ISS 22 Jan 22:35:56 22:37:25 12° 351° (N) 22:38:55 437.550
SPROUT 22 Jan 22:49:49 22:53:09 23° 68° (ENE) 22:56:30 437.525
QB50P2 22 Jan 23:01:02 23:03:47 17° 93° (E) 23:06:31 145.880/145.840
YUBILEINY 22 Jan 23:05:14 23:14:05 85° 277° (W) 23:22:56 435.215
VELOX 1 22 Jan 23:09:38 23:12:56 21° 67° (ENE) 23:16:16 145.980
AIST 2D 22 Jan 23:10:22 23:13:50 71° 102° (ESE) 23:17:15 435.315
ESTCUBE 1 22 Jan 23:18:56 23:23:10 38° 262° (W) 23:27:24 437.505/2401.250
O/OREOS (USA 219) 22 Jan 23:24:36 23:28:41 35° 105° (ESE) 23:32:46 437.305
DUCHIFAT 1 22 Jan 23:26:39 23:29:55 21° 94° (E) 23:33:10 145.980
EO-79 22 Jan 23:30:16 23:34:05 31° 97° (E) 23:37:53 145.935-145.965
PRISM 22 Jan 23:41:54 23:45:15 25° 291° (WNW) 23:48:37 437.425
LO-87 22 Jan 23:43:51 23:45:06 11° 269° (W) 23:46:22 145.935 - 145.965
NO-84 22 Jan 23:47:45 23:50:30 44° 227° (SW) 23:53:21 435.350 FM
nSIGHT-1 22 Jan 23:51:12 23:52:41 13° 11° (N) 23:54:11 .
POLYITAN 1 23 Jan 00:05:31 00:09:51 80° 104° (ESE) 00:14:07 437.675
ISS 23 Jan 00:13:15 00:15:00 14° 12° (NNE) 00:16:45 437.550
AO-91 23 Jan 00:17:34 00:20:06 14° 93° (E) 00:22:44 145.960
NANOSAT C BR1 23 Jan 00:19:01 00:23:19 82° 283° (WNW) 00:27:34 145.865
BUGSAT 1 23 Jan 00:19:31 00:22:30 18° 93° (E) 00:25:27 437.445
50 SAT 23 Jan 00:24:25 00:26:24 16° 69° (ENE) 00:28:24 437.505
SPROUT 23 Jan 00:25:08 00:28:51 30° 264° (W) 00:32:37 437.525
QB50P2 23 Jan 00:35:41 00:39:43 40° 288° (WNW) 00:43:43 145.880/145.840
UKube-1 23 Jan 00:38:07 00:41:27 22° 67° (ENE) 00:44:47 .
VELOX 1 23 Jan 00:45:11 00:49:09 34° 262° (W) 00:53:09 145.980
DX 1 23 Jan 00:53:46 00:57:59 55° 73° (ENE) 01:02:14 434.975-435.025
DUCHIFAT 1 23 Jan 01:01:49 01:05:36 31° 290° (WNW) 01:09:21 145.980
O/OREOS (USA 219) 23 Jan 01:04:36 01:08:09 23° 302° (WNW) 01:11:43 437.305
EO-79 23 Jan 01:06:20 01:09:39 22° 293° (WNW) 01:12:57 145.935-145.965
YUBILEINY 23 Jan 01:06:51 01:12:16 17° 298° (WNW) 01:17:42 435.215
ITUPSAT 1 23 Jan 01:16:07 01:16:58 10° 59° (ENE) 01:17:49 437.325
MOZHAYETS 4 23 Jan 01:22:35 01:25:59 21° 66° (ENE) 01:29:24
nSIGHT-1 23 Jan 01:26:33 01:29:32 37° 30° (NNE) 01:32:32 .
Oscar 19 23 Jan 01:30:40 01:35:49 64° 102° (ESE) 01:40:54 437.125/150
Gurwin Techsat 1B 23 Jan 01:34:38 01:39:50 52° 100° (E) 01:44:59 435.225
ISS 23 Jan 01:49:00 01:52:09 41° 31° (NNE) 01:55:17 437.550
BEESAT 23 Jan 01:50:52 01:54:40 24° 66° (ENE) 01:58:28 436.000
AO-91 23 Jan 01:52:12 01:56:43 61° 285° (WNW) 02:01:41 145.960
BUGSAT 1 23 Jan 01:54:02 01:57:56 36° 289° (WNW) 02:01:49 437.445
50 SAT 23 Jan 01:55:35 01:57:56 20° 264° (W) 02:00:18 437.505
FALCONSAT 3 23 Jan 02:02:43 02:04:09 12° 154° (SSE) 02:05:34 435.103
UKube-1 23 Jan 02:13:28 02:17:16 31° 262° (W) 02:21:06 .
DX 1 23 Jan 02:32:40 02:34:29 12° 269° (W) 02:36:18 434.975-435.025
ITAMSAT 1 23 Jan 02:43:28 02:46:25 15° 91° (E) 02:49:21 435.822/435.867
ITUPSAT 1 23 Jan 02:49:14 02:54:01 90° 238° (WSW) 02:58:50 437.325
MOZHAYETS 4 23 Jan 02:58:30 03:02:50 40° 262° (W) 03:07:13
nSIGHT-1 23 Jan 03:03:00 03:05:34 22° 227° (SW) 03:08:07 .
CUBESAT XI-V 23 Jan 03:07:23 03:12:00 62° 75° (ENE) 03:16:38 437.345
Oscar 19 23 Jan 03:11:27 03:14:34 16° 298° (WNW) 03:17:40 437.125/150
Gurwin Techsat 1B 23 Jan 03:15:32 03:19:21 20° 297° (WNW) 03:23:10 435.225
AO-7 23 Jan 03:16:28 03:24:39 55° 102° (ESE) 03:32:46 .
ISS 23 Jan 03:25:53 03:28:26 21° 227° (SW) 03:31:00 437.550
BEESAT 23 Jan 03:27:52 03:32:13 35° 262° (W) 03:36:36 436.000
FALCONSAT 3 23 Jan 03:39:21 03:42:36 30° 168° (SSE) 03:45:51 435.103
SO-50 23 Jan 03:54:18 03:57:50 24° 112° (ESE) 04:01:26 436.795
KKS-1 23 Jan 04:10:07 04:14:15 41° 71° (ENE) 04:18:25 437.445
STARS 23 Jan 04:20:06 04:23:21 21° 66° (ENE) 04:26:37 437.465
ITAMSAT 1 23 Jan 04:21:07 04:26:17 64° 287° (WNW) 04:31:25 435.822/435.867
CUBESAT XI-V 23 Jan 04:47:38 04:49:45 13° 270° (W) 04:51:51 437.345
DOVE 4 23 Jan 05:03:44 05:08:09 75° 283° (WNW) 05:12:48 437.250
XW-2B 23 Jan 05:04:34 05:06:04 12° 91° (E) 05:07:34 145.730 - 145.750
AO-7 23 Jan 05:09:45 05:17:03 35° 301° (WNW) 05:24:19 .
M-CUBED/EXP-1 PRIME 23 Jan 05:12:56 05:16:15 83° 108° (ESE) 05:19:30 437.505
FALCONSAT 3 23 Jan 05:17:53 05:21:19 38° 183° (S) 05:24:45 435.103
STRAND 1 23 Jan 05:27:37 05:30:57 18° 63° (ENE) 05:34:18 437.568
XW-2C 23 Jan 05:33:33 05:36:49 28° 96° (E) 05:40:05 145.795 - 145.815
SO-50 23 Jan 05:33:58 05:38:05 36° 309° (NW) 05:42:18 436.795
LilacSat-2 23 Jan 05:34:27 05:37:51 32° 97° (E) 05:41:15 437.200
KKS-1 23 Jan 05:48:03 05:50:58 17° 267° (W) 05:53:54 437.445
FO-29 23 Jan 05:52:48 05:56:58 18° 63° (ENE) 06:00:52 435.910
STARS 23 Jan 05:55:29 05:59:27 34° 262° (W) 06:03:27 437.465
KAITUO 1B 23 Jan 06:01:03 06:04:35 43° 99° (E) 06:08:05 145.475/437.950
CUBEBUG 2 23 Jan 06:04:47 06:07:20 14° 90° (E) 06:09:53 437.445
XW-2F 23 Jan 06:07:04 06:10:49 73° 102° (ESE) 06:14:30 145.980 - 146.000
NUDT-PHONESAT 23 Jan 06:07:21 06:10:55 49° 100° (E) 06:14:27 437.300
CUTE-I 23 Jan 06:11:42 06:16:58 59° 101° (ESE) 06:22:13 437.470
XW-2D 23 Jan 06:19:01 06:22:45 68° 284° (WNW) 06:26:27 145.860 - 145.880
HO-68 23 Jan 06:25:36 06:32:15 40° 98° (E) 06:38:52 435.675
RS-15 23 Jan 06:36:02 06:46:59 40° 107° (ESE) 06:57:50 29.354- 29.394
XW-2B 23 Jan 06:36:53 06:40:26 41° 287° (WNW) 06:43:57 145.730 - 145.750
SEEDS 23 Jan 06:43:57 06:47:40 31° 96° (E) 06:51:21 437.485
FALCONSAT 3 23 Jan 06:57:03 06:59:58 22° 198° (SSW) 07:02:52 435.103
CUTE 1.7 + AOD 2 23 Jan 07:01:12 07:05:25 88° 96° (E) 07:09:37 437.475
STRAND 1 23 Jan 07:04:40 07:09:39 56° 259° (W) 07:14:41 437.568
XW-2C 23 Jan 07:08:11 07:10:47 18° 292° (WNW) 07:13:22 145.795 - 145.815
LilacSat-2 23 Jan 07:09:26 07:11:51 16° 293° (WNW) 07:14:15 437.200
XW-2A 23 Jan 07:22:01 07:24:49 24° 96° (E) 07:27:36 145.665 - 145.685
FO-29 23 Jan 07:34:45 07:41:34 75° 257° (WSW) 07:47:36 435.910
KAITUO 1B 23 Jan 07:36:39 07:38:08 12° 295° (WNW) 07:39:36 145.475/437.950
UWE-3 23 Jan 07:39:29 07:44:10 81° 100° (E) 07:48:46 435.000/436.395/437.385
CUBEBUG 2 23 Jan 07:39:36 07:44:17 58° 286° (WNW) 07:48:55 437.445
TIGRISAT 23 Jan 07:41:53 07:43:46 13° 62° (ENE) 07:45:41 435.000
NUDT-PHONESAT 23 Jan 07:43:23 07:44:16 11° 295° (WNW) 07:45:10 437.300
AAUSAT CUBESAT 2 23 Jan 07:52:44 07:56:52 83° 104° (ESE) 08:00:57 437.432
CUTE-I 23 Jan 07:52:57 07:56:31 18° 298° (WNW) 08:00:04 437.470
UNISAT 6 23 Jan 07:56:24 07:59:35 20° 66° (ENE) 08:02:50 437.425
ZACube-1 23 Jan 07:57:23 08:01:55 64° 101° (E) 08:06:19 437.345
AO-73 23 Jan 08:02:31 08:07:02 64° 101° (E) 08:11:24 145.935
HO-68 23 Jan 08:13:24 08:19:54 39° 296° (WNW) 08:26:23 435.675
SEEDS 23 Jan 08:20:02 08:23:08 21° 292° (WNW) 08:26:13 437.485
BEESAT 3 23 Jan 08:22:11 08:25:48 35° 115° (ESE) 08:29:27 437.485
PCSat 23 Jan 08:29:49 08:34:39 34° 110° (ESE) 08:39:30 145.827
Oscar 11 23 Jan 08:32:52 08:37:12 85° 100° (E) 08:41:30 .
RS-15 23 Jan 08:46:41 08:58:55 64° 308° (NW) 09:10:59 29.354- 29.394
XW-2A 23 Jan 08:55:10 08:57:18 16° 292° (WNW) 08:59:25 145.665 - 145.685
PRISM 23 Jan 08:55:58 08:58:35 17° 66° (ENE) 09:01:13 437.425
TIGRISAT 23 Jan 09:15:26 09:19:50 67° 259° (W) 09:24:23 435.000
YUBILEINY 23 Jan 09:16:23 09:24:44 47° 75° (ENE) 09:32:59 435.215
BEESAT 2 23 Jan 09:16:36 09:20:15 35° 115° (ESE) 09:23:57 435.950
UWE-3 23 Jan 09:18:34 09:19:54 11° 299° (WNW) 09:21:13 435.000/436.395/437.385
UNISAT 6 23 Jan 09:31:48 09:35:58 40° 262° (W) 09:40:15 437.425
O/OREOS (USA 219) 23 Jan 09:34:37 09:39:04 62° 66° (ENE) 09:43:30 437.305
ZACube-1 23 Jan 09:35:31 09:37:35 13° 297° (WNW) 09:39:38 437.345
DELFI C3 23 Jan 09:39:22 09:43:19 89° 106° (ESE) 09:47:15 145.870
AO-73 23 Jan 09:40:37 09:42:39 13° 297° (WNW) 09:44:40 145.935
AIST 2D 23 Jan 09:44:06 09:46:51 22° 70° (ENE) 09:49:37 435.315
Max Valier Satellite 23 Jan 09:45:21 09:49:02 69° 101° (E) 09:52:40 145.860
QB50P2 23 Jan 09:54:08 09:55:54 12° 63° (ENE) 09:57:39 145.880/145.840
EO-88 23 Jan 09:57:39 10:01:16 61° 101° (ESE) 10:04:50 145.990 - 145.960
BEESAT 3 23 Jan 10:00:16 10:03:24 22° 312° (NW) 10:06:33 437.485
PCSat 23 Jan 10:13:06 10:18:00 34° 308° (NW) 10:22:55 145.827
DUCHIFAT 1 23 Jan 10:18:31 10:20:58 15° 65° (ENE) 10:23:27 145.980
EO-79 23 Jan 10:22:17 10:25:34 22° 68° (ENE) 10:28:51 145.935-145.965
PRISM 23 Jan 10:29:46 10:33:32 37° 261° (W) 10:37:20 437.425
AO-85 23 Jan 10:39:20 10:42:51 32° 114° (ESE) 10:46:34 145.980
BEESAT 2 23 Jan 10:54:51 10:58:02 22° 312° (NW) 11:01:16 435.950
POLYITAN 1 23 Jan 10:57:01 11:01:08 53° 74° (ENE) 11:05:18 437.675
RS-15 23 Jan 11:04:45 11:14:26 26° 337° (NNW) 11:23:55 29.354- 29.394
LO-87 23 Jan 11:08:10 11:11:45 53° 100° (E) 11:15:17 145.935 - 145.965
BUGSAT 1 23 Jan 11:09:53 11:11:35 12° 63° (ENE) 11:13:18 437.445
NANOSAT C BR1 23 Jan 11:09:56 11:14:06 66° 75° (ENE) 11:18:19 145.865
ESTCUBE 1 23 Jan 11:11:29 11:15:46 44° 99° (E) 11:20:02 437.505/2401.250
Oscar 19 23 Jan 11:11:48 11:13:28 12° 59° (ENE) 11:15:09 437.125/150
YUBILEINY 23 Jan 11:13:34 11:21:16 37° 274° (W) 11:28:56 435.215
O/OREOS (USA 219) 23 Jan 11:16:20 11:17:53 12° 262° (W) 11:19:25 437.305
AIST 2D 23 Jan 11:17:17 11:19:56 20° 265° (W) 11:22:34 435.315
Gurwin Techsat 1B 23 Jan 11:20:20 11:21:20 11° 57° (ENE) 11:22:20 435.225
QB50P2 23 Jan 11:26:57 11:31:08 60° 259° (W) 11:35:22 145.880/145.840
DUCHIFAT 1 23 Jan 11:52:11 11:56:13 46° 261° (W) 12:00:18 145.980
EO-79 23 Jan 11:57:24 12:01:08 30° 264° (W) 12:04:54 145.935-145.965
SPROUT 23 Jan 12:10:24 12:14:33 45° 99° (E) 12:18:39 437.525
AO-85 23 Jan 12:19:58 12:23:17 24° 314° (NW) 12:26:47 145.980
SO-50 23 Jan 12:25:13 12:28:58 23° 46° (NE) 12:32:44 436.795
AO-7 23 Jan 12:26:47 12:31:27 16° 48° (NE) 12:36:08 .
VELOX 1 23 Jan 12:34:59 12:39:12 43° 99° (E) 12:43:24 145.980
POLYITAN 1 23 Jan 12:35:25 12:37:14 12° 269° (W) 12:39:02 437.675
BUGSAT 1 23 Jan 12:42:24 12:46:25 56° 260° (W) 12:50:30 437.445
Oscar 19 23 Jan 12:46:45 12:51:58 88° 74° (ENE) 12:57:12 437.125/150
ESTCUBE 1 23 Jan 12:49:14 12:52:13 18° 295° (WNW) 12:55:11 437.505/2401.250
AO-91 23 Jan 12:49:44 12:53:05 75° 258° (WSW) 12:56:37 145.960
Gurwin Techsat 1B 23 Jan 12:55:04 13:00:22 79° 75° (ENE) 13:05:43 435.225
50 SAT 23 Jan 13:10:40 13:12:09 13° 94° (E) 13:13:37 437.505
RS-15 23 Jan 13:24:00 13:32:46 22° 13° (NNE) 13:41:14 29.354- 29.394
SPROUT 23 Jan 13:47:23 13:50:02 16° 295° (WNW) 13:52:41 437.525
UKube-1 23 Jan 14:00:14 14:04:20 41° 99° (E) 14:08:24 .
ITAMSAT 1 23 Jan 14:00:33 14:04:34 23° 64° (ENE) 14:08:36 435.822/435.867
SO-50 23 Jan 14:05:06 14:09:39 48° 243° (WSW) 14:14:14 436.795
VELOX 1 23 Jan 14:12:24 14:15:17 17° 295° (WNW) 14:18:10 145.980
AO-7 23 Jan 14:14:28 14:22:44 71° 68° (ENE) 14:31:04 .
DX 1 23 Jan 14:18:09 14:22:30 72° 285° (WNW) 14:26:49 434.975-435.025
Oscar 19 23 Jan 14:31:19 14:31:55 10° 272° (W) 14:32:31 437.125/150
Gurwin Techsat 1B 23 Jan 14:38:53 14:40:53 12° 271° (W) 14:42:54 435.225
50 SAT 23 Jan 14:41:13 14:43:51 25° 289° (WNW) 14:46:28 437.505
ITUPSAT 1 23 Jan 14:50:46 14:54:39 24° 95° (E) 14:58:30 437.325
MOZHAYETS 4 23 Jan 14:53:37 14:58:06 47° 99° (E) 15:02:32
NO-84 23 Jan 15:02:00 15:04:24 19° 129° (SE) 15:06:43 435.350 FM
CUBESAT XI-V 23 Jan 15:05:41 15:08:26 16° 91° (E) 15:11:10 437.345
BEESAT 23 Jan 15:27:47 15:32:32 58° 101° (E) 15:37:15 436.000
UKube-1 23 Jan 15:37:09 15:40:00 18° 295° (WNW) 15:42:52 .
RS-15 23 Jan 15:37:49 15:49:11 49° 45° (NE) 15:59:54 29.354- 29.394
ITAMSAT 1 23 Jan 15:38:52 15:43:44 42° 261° (W) 15:48:40 435.822/435.867
M-CUBED/EXP-1 PRIME 23 Jan 15:56:53 16:01:12 86° 252° (WSW) 16:05:14 437.505
CUTE-I 23 Jan 15:56:59 15:59:00 12° 59° (ENE) 16:01:02 437.470
DOVE 4 23 Jan 16:08:46 16:13:02 80° 260° (W) 16:17:12 437.250
AO-7 23 Jan 16:09:36 16:16:05 25° 266° (W) 16:22:39 .
XW-2C 23 Jan 16:15:10 16:17:15 14° 66° (ENE) 16:19:20 145.795 - 145.815
LilacSat-2 23 Jan 16:16:28 16:18:53 16° 67° (ENE) 16:21:19 437.200
ITUPSAT 1 23 Jan 16:28:08 16:32:31 35° 291° (WNW) 16:36:52 437.325
MOZHAYETS 4 23 Jan 16:31:49 16:34:50 18° 296° (WNW) 16:37:52
NO-84 23 Jan 16:38:34 16:41:25 32° 323° (NW) 16:44:09 435.350 FM
BEESAT 3 23 Jan 16:39:23 16:42:16 19° 46° (NE) 16:45:06 437.485
KAITUO 1B 23 Jan 16:40:42 16:43:25 19° 69° (ENE) 16:46:09 145.475/437.950
CUBESAT XI-V 23 Jan 16:41:37 16:46:04 49° 287° (WNW) 16:50:28 437.345
NUDT-PHONESAT 23 Jan 16:45:56 16:48:44 21° 69° (ENE) 16:51:34 437.300
XW-2F 23 Jan 16:47:03 16:50:24 30° 71° (ENE) 16:53:45 145.980 - 146.000
HO-68 23 Jan 16:54:16 17:00:11 29° 61° (ENE) 17:06:07 435.675
XW-2D 23 Jan 16:59:03 17:02:44 49° 74° (ENE) 17:06:26 145.860 - 145.880
CUBEBUG 2 23 Jan 17:03:44 17:05:00 11° 61° (ENE) 17:06:16 437.445
BEESAT 23 Jan 17:06:58 17:09:48 16° 297° (WNW) 17:12:36 436.000
XW-2B 23 Jan 17:16:38 17:20:27 79° 75° (ENE) 17:24:17 145.730 - 145.750
PCSat 23 Jan 17:17:56 17:22:31 27° 50° (NE) 17:27:05 145.827
CUTE-I 23 Jan 17:32:56 17:38:15 90° 278° (W) 17:43:36 437.470
BEESAT 2 23 Jan 17:34:42 17:37:44 20° 47° (NE) 17:40:42 435.950
SEEDS 23 Jan 17:35:16 17:38:26 21° 68° (ENE) 17:41:35 437.485
KKS-1 23 Jan 17:37:23 17:41:52 89° 287° (WNW) 17:46:20 437.445
STARS 23 Jan 17:44:41 17:48:53 41° 99° (E) 17:53:03 437.465
XW-2C 23 Jan 17:47:27 17:51:03 39° 261° (W) 17:54:40 145.795 - 145.815
LilacSat-2 23 Jan 17:49:19 17:52:51 34° 263° (W) 17:56:24 437.200
CUTE 1.7 + AOD 2 23 Jan 17:52:45 17:56:55 55° 74° (ENE) 18:01:05 437.475
